Погода в Голынках

Россия / Смоленская область     54°52′03″N   31°23′15″E
темп.,
°C
ветер,
м/с
пор.,
м/с
влажн.,
%
обл.,
%
осадки,
мм/ч
давл.,
гПа
погр.,
м
8 марта, пн
пн800:00−5з5138595 0.1 1001493
03:00−6з5138859 0.1 1002568
06:00−7зсз5129394 0.0 1002452
09:00−6сз599194 0.1 1004737
12:00−5сз578492 0.1 1007780
15:00−5сз578296 0.1 1008941
18:00−6ссз4987100 0.1 1011557
21:00−9ссз499098 0.1 1013266
9 марта, вт
вт900:00−12ссз349475 0.0 101571
03:00−13ссз349569 0.0 101770
06:00−13сз34950 0.0 101867
09:00−12ссз36930 0.0 1020245
12:00−8сз458361 0.0 1020733
15:00−7сз467879 0.1 1021881
18:00−8зсз238494 0.0 102157
21:00−11з228655 0.0 102321
10 марта, ср
ср1000:00−9ююз238889 0.0 102355
03:00−8юз489295 0.3 1022306
06:00−8зюз4890100 0.0 1022247
09:00−6зюз4895100 0.4 1023394
12:00−4з4693100 0.7 1023541
15:00−4ссв1289100 1.4 1024342
18:00−8в5995100 0.8 1024328
21:00−11вюв5994100 1.1 1026333
11 марта, чт
чт1100:00−13вюв499399 0.1 1027281
03:00−15вюв489596 0.1 1027217
06:00−15вюв4895100 0.0 1027231
09:00−14юв479598 0.1 1028243
12:00−10юв479499 0.0 1026317
15:00−7юв589399 0.1 1025430
18:00−6ююв5990100 0.1 1023611
21:00−7ююв61291100 0.2 1022603
12 марта, пт
пт1200:00−8ююв71590100 0.0 1020572
03:00−8ююв81688100 0.0 1016541
06:00−7ююв91882100 0.0 1011729
09:00−5ююв111992100 2.1 1007996
12:00−3ююв111893100 3.4 10031041
15:000ю91596100 5.3 1001742
18:00+1ююз51099100 1.3 999374
21:00+1юз51098100 2.3 1000362